Theta_e
316 314 314 315 315 314 314 314 313 312 312 312 312 311 311 310 310 309 310 310 310 310 311 311 311 310 308 301 302 313 319 318 319 318 315 310 308 306 300 300 300 299 300 302 304 304 303
314 314 315 314 313 312 314 313 312 312 312 311 311 310 309 309 309 308 308 309 309 309 310 310 310 309 303 295 311 314 311 314 315 317 315 312 308 307 303 301 300 301 301 301 303 302 303
313 314 314 314 312 312 313 312 312 311 311 311 311 310 309 309 308 309 309 309 308 309 309 309 309 305 300 298 311 314 312 317 316 317 313 314 311 306 303 299 303 300 297 299 300 301 301
313 314 313 313 311 312 312 312 311 311 310 311 310 310 310 309 307 308 308 308 308 308 308 308 309 304 294 312 313 312 311 316 317 320 316 315 313 306 303 303 300 297 297 291 298 300 301
313 312 312 312 311 312 312 311 310 310 309 309 309 309 309 307 307 308 308 309 309 309 308 308 302 300 295 314 306 311 310 312 315 316 315 316 312 305 302 295 293 293 287 290 294 300 299
313 312 311 311 310 312 310 310 309 310 311 311 310 309 308 306 307 308 307 308 307 305 304 305 303 294 300 299 307 308 311 314 311 310 308 307 304 298 296 293 285 288 288 290 290 294 296
311 311 311 311 310 310 311 311 310 311 311 311 311 309 308 306 307 307 305 296 290 290 295 289 291 294 300 307 310 307 312 312 310 306 298 302 295 291 295 295 292 292 290 289 292 294 293
311 311 310 310 309 311 309 310 311 311 311 311 310 310 310 309 308 307 300 290 290 294 286 294 295 296 301 307 299 303 310 304 302 296 300 296 291 296 298 296 294 292 290 289 292 293 292
310 310 310 309 309 309 309 310 310 312 311 311 311 310 309 309 308 304 297 294 298 297 286 292 297 297 300 304 299 300 306 304 293 292 296 292 296 299 297 295 293 291 290 289 289 290 290
310 310 309 308 308 308 309 310 310 311 311 310 310 309 308 308 299 300 296 299 300 298 277 287 292 300 302 303 297 306 308 303 299 288 294 294 299 298 296 294 294 288 292 291 289 287 284
309 309 308 307 308 308 308 308 310 310 311 310 309 309 308 305 298 294 297 299 299 296 267 291 293 305 301 296 298 300 308 303 296 295 295 290 295 296 294 295 295 291 292 289 287 284 284
308 309 308 307 307 307 307 308 310 310 310 310 309 309 307 300 297 300 304 300 296 275 273 286 294 294 294 296 298 301 301 305 302 295 294 293 298 297 295 295 294 292 288 285 284 283 278
308 308 307 307 306 306 307 307 309 309 310 310 310 308 304 302 293 302 300 293 275 274 287 285 288 293 292 292 294 296 294 293 291 286 287 291 289 293 296 289 292 290 287 279 276 275 278
308 308 307 307 306 306 307 307 308 309 309 310 309 305 303 302 301 302 299 280 278 286 287 292 292 293 289 291 293 293 292 289 291 291 287 283 282 290 293 291 288 287 286 279 275 274 276
307 308 307 307 306 306 306 306 308 308 308 310 305 295 296 298 301 301 289 282 281 286 292 290 289 286 286 290 292 292 289 289 290 289 285 281 282 291 291 291 291 286 283 284 278 276 275
307 308 307 306 306 306 306 306 307 307 308 309 292 291 293 299 300 293 284 286 287 292 291 289 283 286 283 287 287 288 287 290 290 290 290 286 282 289 290 292 291 288 288 280 277 271 273
306 307 307 306 306 305 305 305 306 307 308 304 290 288 295 299 296 290 283 285 290 293 292 287 284 283 286 285 285 285 284 289 291 290 290 287 285 286 290 287 284 285 283 281 280 277 274
306 306 307 306 305 305 305 305 305 306 307 297 288 284 297 297 287 290 287 289 292 291 293 289 288 286 284 285 283 283 284 287 291 292 287 288 284 282 284 288 289 287 284 282 277 275 276
306 306 307 306 305 305 304 304 304 305 306 292 286 285 295 295 282 285 287 290 291 290 289 288 287 289 288 285 282 284 286 291 292 290 288 289 281 274 278 283 287 285 285 284 281 280 275
305 305 306 306 305 304 304 304 304 304 306 292 286 281 288 290 287 286 285 286 287 292 290 289 288 289 286 284 286 284 285 291 292 291 297 292 283 279 275 279 283 281 284 284 282 276 277
305 305 305 307 305 304 304 303 303 303 305 293 287 286 289 281 284 283 284 286 286 287 291 290 287 287 286 283 285 284 287 288 291 296 291 289 279 280 283 284 284 283 284 283 279 281 278
304 304 304 306 305 303 303 303 303 302 303 294 287 287 291 284 284 281 285 284 286 288 288 287 286 289 290 285 285 284 287 285 286 288 288 289 282 282 278 285 284 282 284 284 284 284 283
304 304 304 304 305 303 303 302 302 302 299 289 293 296 292 286 283 281 284 285 287 289 291 292 291 293 292 292 292 290 290 290 290 288 286 288 282 279 275 282 282 279 282 284 285 285 286
303 303 303 304 305 303 302 303 302 302 298 296 295 294 289 282 283 284 287 288 288 289 288 291 292 290 293 295 293 292 292 290 290 289 290 286 284 281 279 280 272 284 289 288 287 288 288
303 303 303 303 304 304 302 302 301 301 300 294 294 292 290 284 284 285 286 287 289 289 288 290 292 296 296 292 288 288 288 288 289 291 291 291 287 282 279 280 282 286 288 287 287 289 291
303 304 303 303 303 305 303 301 302 302 300 290 290 292 290 286 282 287 288 287 284 283 286 289 293 295 295 291 288 282 279 281 284 286 292 291 287 283 282 277 275 285 293 295 294 286 293
303 303 302 303 302 303 304 302 302 302 300 291 289 290 287 284 285 290 287 288 289 285 284 285 289 289 291 284 283 281 278 283 282 283 285 286 287 283 283 280 282 289 293 297 285 287 293
303 302 302 302 302 302 303 303 303 301 300 294 289 291 285 280 282 286 290 287 292 291 284 287 288 288 286 284 285 285 279 281 281 283 286 285 283 283 284 281 276 292 293 290 294 293 293
303 302 302 301 301 302 302 303 303 301 300 296 288 291 291 284 283 287 290 290 289 291 290 292 287 287 289 284 283 283 282 281 280 279 284 284 285 283 284 283 289 291 292 295 294 294 293
Wind_Speed
19 21 22 22 23 24 23 24 21 20 21 20 18 18 17 16 14 13 13 13 12 12 11 9 9 8 4 7 7 2 13 9 21 17 16 11 14 10 9 5 5 2 4 5 2 3 4
20 20 20 22 22 24 24 24 21 21 21 19 19 17 14 12 13 12 11 11 11 11 12 11 9 5 3 10 3 2 10 4 18 17 16 8 11 5 7 6 5 8 4 3 2 2 1
19 21 22 22 24 23 24 23 22 21 21 21 20 18 15 15 11 11 11 11 9 10 11 10 8 2 6 12 1 4 8 6 21 17 17 6 11 7 6 5 4 6 4 2 5 3 3
20 20 22 23 24 24 25 23 23 23 22 22 19 18 14 15 12 9 11 9 11 12 8 8 8 3 6 6 4 4 7 2 14 11 13 6 5 6 4 5 4 6 3 4 2 8 6
20 21 22 23 25 25 24 23 23 23 23 23 22 17 16 13 12 9 12 13 14 13 6 5 2 4 4 3 5 5 5 5 11 7 6 6 5 3 3 6 4 2 4 5 3 7 3
20 21 23 24 25 24 25 25 25 26 26 23 21 18 14 13 11 7 7 11 11 2 1 2 2 1 3 3 3 7 4 7 8 13 12 9 3 4 3 4 8 7 5 3 8 2 3
20 21 22 24 25 25 23 24 26 27 28 28 23 19 14 11 11 4 6 4 4 4 2 5 5 4 4 2 2 3 3 9 8 11 6 9 4 14 10 4 4 7 5 4 2 2 1
20 21 22 23 24 24 25 26 27 28 29 28 26 20 16 15 12 7 4 2 3 2 1 4 7 8 6 4 5 2 5 5 7 12 7 6 8 8 9 5 6 5 5 3 1 3 0
19 21 23 23 23 25 24 26 27 28 27 27 27 25 14 7 9 1 5 2 1 2 2 4 2 4 5 4 5 3 4 5 7 5 12 11 6 13 11 6 7 2 5 3 2 2 3
19 21 22 23 23 23 24 25 26 26 26 24 25 23 20 9 8 3 3 4 3 2 5 4 2 3 1 4 5 0 1 2 5 11 8 3 4 13 12 11 7 5 2 4 4 3 1
17 20 21 23 24 23 24 25 25 24 23 21 23 20 16 15 4 4 2 2 3 2 7 5 4 4 6 6 6 3 2 2 5 10 5 3 5 8 9 6 5 4 5 4 3 4 2
17 18 20 22 23 24 25 25 25 24 21 20 18 21 12 6 4 4 2 1 2 6 7 4 6 8 5 3 3 1 5 6 3 12 11 4 2 4 3 7 5 6 5 6 5 2 0
16 18 19 21 23 23 24 25 24 24 22 19 15 11 6 2 1 4 3 3 5 8 1 3 3 4 3 6 6 2 3 4 2 5 3 4 5 4 3 7 6 0 4 1 2 2 3
16 17 19 21 23 24 24 25 25 25 24 21 12 2 3 1 2 0 2 4 10 5 5 4 5 10 5 6 6 4 4 3 5 8 4 3 4 4 5 3 7 5 3 4 4 3 2
14 16 18 20 23 24 24 25 26 25 25 21 10 2 0 3 2 1 2 7 2 1 4 7 7 8 5 6 5 4 3 1 2 2 5 5 3 1 4 3 2 4 2 3 7 2 1
13 15 17 19 22 24 25 25 26 27 23 18 2 2 3 3 3 3 3 6 3 2 3 4 4 2 3 3 3 2 1 1 3 2 1 3 6 2 2 3 7 2 5 3 3 3 4
12 14 16 18 20 23 25 26 27 28 27 8 3 4 3 5 2 5 5 4 3 4 2 2 3 4 4 4 3 2 1 1 1 2 4 4 4 0 2 1 5 2 1 5 4 1 3
12 14 16 18 20 21 24 26 27 28 25 7 2 4 3 2 6 3 3 4 3 4 2 2 4 4 5 4 3 2 3 1 2 4 3 1 5 4 2 1 1 2 4 5 4 4 1
12 13 15 17 20 20 22 25 27 27 20 2 3 2 4 3 4 3 4 3 1 5 4 3 2 2 1 3 4 2 3 3 3 2 5 5 2 4 4 3 3 3 3 3 4 3 5
11 12 15 14 18 20 22 24 26 27 20 3 3 3 5 6 1 2 4 3 4 1 2 3 2 3 3 4 5 3 2 3 2 2 6 6 3 5 6 4 4 4 4 5 5 3 4
10 12 13 15 16 19 20 22 25 27 20 3 3 1 1 1 2 2 1 2 2 3 3 3 3 2 4 3 2 3 2 3 2 4 3 4 3 2 3 3 3 4 5 8 8 5 6
10 12 13 15 14 17 18 20 23 27 17 4 3 2 1 1 2 2 0 1 1 2 1 2 5 3 3 4 6 7 5 3 4 2 3 2 3 2 3 1 4 5 7 8 9 4 8
10 13 14 15 13 15 16 17 20 23 12 3 3 2 0 2 1 1 2 2 1 2 0 2 1 1 3 1 2 3 1 4 6 7 3 5 6 2 3 2 4 6 10 13 7 6 9
10 12 14 14 13 13 14 14 16 17 11 1 2 2 2 3 1 1 4 4 2 0 2 1 2 3 2 4 3 6 7 6 6 3 3 5 4 3 1 3 1 5 4 6 13 5 11
8 11 13 14 13 11 12 12 12 13 12 3 2 2 2 3 2 4 2 3 6 4 0 1 0 1 2 3 3 3 2 2 3 2 3 2 5 3 2 3 6 1 4 6 6 2 11
8 9 9 11 12 13 11 11 10 11 8 3 2 2 1 2 3 1 3 2 1 1 3 1 1 0 3 2 3 3 5 4 3 1 4 4 4 4 2 2 4 4 3 3 2 2 5
7 8 10 10 12 12 11 10 9 9 6 3 1 2 1 2 3 3 4 3 1 1 2 3 3 2 2 3 2 4 4 4 5 6 4 3 2 5 4 3 7 6 5 6 2 3 2
6 7 7 8 11 12 12 11 10 7 3 3 2 0 3 1 6 3 2 3 3 2 3 2 2 2 2 4 4 4 4 6 3 4 6 8 6 4 4 4 8 5 3 6 4 2 3
6 6 6 6 8 12 14 14 11 7 4 4 0 1 2 2 7 6 7 7 8 9 3 2 2 3 5 4 1 3 3 2 5 4 2 6 7 6 8 7 4 5 1 2 4 4 3
Wind_Direction
345 342 340 341 340 336 336 331 329 328 319 321 315 320 326 321 324 330 321 316 316 310 295 288 291 308 314 238 235 330 355 318 197 188 190 170 174 170 178 157 123 147 169 174 218 128 159
344 342 342 344 341 333 336 336 331 326 321 318 315 318 318 321 319 322 325 323 316 312 302 290 284 316 222 249 189 347 345 287 190 180 191 168 174 149 155 177 177 175 159 157 249 219 191
343 341 343 346 339 336 337 336 332 328 324 321 318 322 318 311 312 319 317 310 308 312 292 284 293 252 241 239 34 356 335 266 185 187 176 175 157 160 127 120 188 129 118 289 238 205 254
343 343 345 343 341 341 338 336 337 334 331 325 328 321 314 310 315 316 307 295 302 305 282 291 279 238 241 200 206 90 288 208 178 175 173 167 135 119 135 120 75 118 98 156 241 176 223
346 345 345 347 343 343 341 343 340 332 330 327 325 320 308 319 310 324 303 293 299 295 256 263 277 197 231 126 178 200 203 206 141 149 159 159 138 129 95 121 101 139 185 187 296 190 136
347 346 348 348 342 346 350 342 340 336 332 325 317 311 316 311 299 331 339 315 316 264 288 76 271 185 231 206 136 145 164 194 166 157 149 169 152 130 117 160 184 156 131 175 203 164 150
349 348 350 346 350 346 342 339 343 339 334 330 322 309 308 302 291 283 323 5 28 28 19 173 208 269 88 88 7 90 167 151 149 146 164 184 165 194 161 141 154 133 128 164 200 97 173
348 348 352 351 349 345 350 346 345 347 350 357 352 333 292 279 283 289 108 126 209 160 47 235 267 264 286 262 117 41 107 162 152 162 136 152 205 159 147 142 120 118 130 191 334 38 128
350 350 353 355 347 349 348 343 354 352 358 358 1 352 332 294 310 263 156 148 127 78 131 56 23 277 275 136 94 205 164 99 94 113 181 154 161 138 163 161 126 101 144 158 142 358 65
352 352 356 352 350 348 346 354 356 354 2 5 13 13 17 97 57 26 58 339 103 75 86 84 271 128 193 110 72 14 93 99 116 141 100 69 306 156 159 181 155 147 114 109 109 82 255
354 353 357 349 351 351 349 353 355 357 1 6 14 9 11 33 120 48 299 104 103 86 84 12 21 302 113 79 135 12 320 70 101 119 146 204 140 152 148 154 148 117 104 107 92 88 29
352 353 355 353 355 351 350 352 355 354 357 0 11 15 22 12 36 355 305 48 48 39 59 23 345 118 124 117 62 79 19 52 57 76 70 63 21 66 69 69 57 128 84 54 55 83 23
352 355 356 354 356 355 352 352 353 352 352 352 355 18 34 22 335 316 342 16 33 63 321 37 88 136 114 110 106 188 88 76 101 101 62 64 16 31 75 73 35 145 89 62 15 33 217
352 353 355 356 355 357 355 351 352 350 345 339 333 57 327 198 221 319 344 49 55 16 46 106 115 88 78 36 48 66 47 94 43 87 109 132 116 160 171 161 157 179 167 156 190 187 240
350 352 357 356 356 356 357 355 349 349 342 335 345 338 87 238 249 124 27 51 64 36 106 134 68 61 26 33 86 74 41 115 97 113 124 123 53 317 52 111 82 171 135 139 105 43 20
350 357 357 359 357 354 356 355 352 348 342 335 49 347 282 301 117 99 66 91 73 277 30 63 94 10 112 96 66 93 192 318 108 69 161 163 105 352 164 78 48 103 140 85 16 141 235
348 357 354 1 359 355 354 356 354 351 345 355 50 48 260 335 112 58 59 52 351 324 347 83 138 99 65 134 131 169 118 328 127 72 90 123 101 56 123 158 160 103 100 57 101 109 171
355 353 356 1 0 358 355 354 355 355 351 37 5 43 306 26 49 24 24 345 314 316 315 75 105 110 133 169 115 139 150 218 167 143 86 78 117 131 111 359 160 187 178 146 137 208 56
354 351 356 0 359 0 359 355 355 356 1 1 37 286 316 64 76 9 318 310 280 353 3 31 62 55 112 122 110 104 123 335 173 107 157 184 54 74 4 14 353 204 196 148 112 99 202
349 351 353 3 357 358 0 357 356 355 357 74 74 31 339 38 55 48 8 346 353 175 3 53 99 63 88 59 27 145 120 14 217 56 102 88 102 148 180 192 140 188 185 180 135 140 178
350 351 349 357 3 356 1 359 357 357 354 86 31 62 171 313 2 68 269 284 344 5 348 25 58 133 141 111 94 118 139 107 59 151 61 100 119 108 253 218 174 202 187 185 196 179 176
350 354 348 352 6 358 360 4 2 2 355 70 57 20 37 286 308 212 338 359 359 331 297 352 135 201 115 155 181 191 142 137 181 71 113 50 126 115 312 77 207 247 231 205 218 216 258
342 346 348 345 357 358 357 8 6 13 16 65 340 308 315 307 359 275 220 221 310 243 152 80 130 80 94 236 213 207 183 142 163 143 140 130 135 104 271 320 322 285 223 200 188 196 201
336 341 343 340 350 353 356 4 7 23 38 11 358 297 356 285 356 197 349 326 286 2 159 9 68 104 173 112 102 64 69 88 101 76 137 137 107 104 288 13 284 244 157 192 197 195 214
327 330 339 337 338 340 349 357 6 19 27 58 4 353 347 285 277 310 5 280 312 324 106 175 152 91 147 64 66 107 44 123 113 83 151 165 120 142 198 243 283 223 179 143 180 239 198
300 327 330 336 326 342 340 348 357 11 36 59 38 291 354 317 255 296 310 312 256 265 335 245 7 165 79 90 110 154 204 203 192 90 17 99 95 128 180 241 241 249 144 115 63 231 178
301 314 330 338 335 333 337 338 349 355 60 101 309 29 73 284 273 204 232 245 241 191 210 287 192 165 37 113 129 172 231 188 175 189 170 147 167 194 195 271 287 236 155 99 163 186 215
276 301 320 331 334 327 336 332 320 338 33 102 263 3 108 250 276 265 270 249 287 167 181 267 61 295 73 161 178 180 174 218 147 189 170 185 178 183 169 213 261 162 84 159 219 234 229
260 294 313 329 338 335 333 347 311 324 348 129 321 241 126 176 247 215 217 244 236 261 309 232 242 207 201 109 203 120 165 144 160 207 335 201 185 182 187 210 234 208 235 186 171 232 243